TimeCDT,TemperatureF,Dew PointF,Humidity,Sea Level PressureIn,VisibilityMPH,Wind Direction,Wind SpeedMPH,Gust SpeedMPH,PrecipitationIn,Events,Conditions,WindDirDegrees,DateUTC
12:53 AM,36.0,33.1,89,30.07,10.0,WNW,3.5,-,N/A,,Clear,290,2012-04-21 05:53:00
1:53 AM,36.0,32.0,86,30.05,10.0,WNW,3.5,-,N/A,,Clear,300,2012-04-21 06:53:00
2:53 AM,34.0,30.9,89,30.04,10.0,Calm,Calm,-,N/A,,Clear,0,2012-04-21 07:53:00
3:53 AM,34.0,30.9,89,30.03,10.0,Calm,Calm,-,N/A,,Clear,0,2012-04-21 08:53:00
4:53 AM,33.1,30.9,92,30.05,10.0,Calm,Calm,-,N/A,,Clear,0,2012-04-21 09:53:00
5:53 AM,32.0,30.0,92,30.04,10.0,Calm,Calm,-,N/A,,Clear,0,2012-04-21 10:53:00
6:53 AM,33.1,30.9,92,30.06,10.0,SW,3.5,-,N/A,,Clear,230,2012-04-21 11:53:00
7:53 AM,37.9,35.1,89,30.05,10.0,Calm,Calm,-,N/A,,Clear,0,2012-04-21 12:53:00
8:53 AM,44.1,37.0,76,30.05,10.0,SSW,3.5,-,N/A,,Clear,210,2012-04-21 13:53:00
9:53 AM,48.9,36.0,61,30.04,10.0,SSW,5.8,-,N/A,,Scattered Clouds,210,2012-04-21 14:53:00
10:53 AM,50.0,34.0,54,30.05,10.0,SW,8.1,-,N/A,,Mostly Cloudy,220,2012-04-21 15:53:00
11:53 AM,50.0,34.0,54,30.04,10.0,SW,9.2,-,N/A,,Overcast,220,2012-04-21 16:53:00
12:53 PM,46.0,37.0,71,30.05,9.0,SSW,5.8,18.4,0.00,Rain,Light Rain,200,2012-04-21 17:53:00
1:53 PM,48.0,37.9,68,30.01,10.0,SSW,4.6,-,0.00,Rain,Light Rain,200,2012-04-21 18:53:00
2:53 PM,46.9,37.9,71,30.01,10.0,SW,10.4,-,0.00,Rain,Light Rain,230,2012-04-21 19:53:00
3:53 PM,48.0,37.0,66,29.99,10.0,South,8.1,-,0.00,,Overcast,190,2012-04-21 20:53:00
4:53 PM,48.0,37.0,66,29.97,10.0,South,6.9,-,N/A,,Overcast,170,2012-04-21 21:53:00
5:53 PM,50.0,37.0,61,29.95,10.0,SSE,10.4,-,N/A,,Mostly Cloudy,150,2012-04-21 22:53:00
6:53 PM,48.9,37.9,66,29.95,10.0,SSE,6.9,-,N/A,,Mostly Cloudy,150,2012-04-21 23:53:00
7:53 PM,46.9,39.9,77,29.94,9.0,Variable,4.6,-,0.01,Rain,Light Rain,0,2012-04-22 00:53:00
8:53 PM,46.0,39.9,79,29.94,10.0,SSE,8.1,-,0.01,,Scattered Clouds,150,2012-04-22 01:53:00
9:53 PM,45.0,39.9,82,29.94,10.0,East,8.1,-,0.00,,Mostly Cloudy,100,2012-04-22 02:53:00
10:49 PM,44.6,39.2,81,29.94,5.0,SE,9.2,-,0.02,Rain-Thunderstorm,Rain,130,2012-04-22 03:49:00
10:53 PM,45.0,39.9,82,29.94,6.0,SSE,15.0,-,0.03,Rain-Thunderstorm,Light Rain,150,2012-04-22 03:53:00
11:08 PM,44.6,41.0,87,29.96,4.0,SSW,5.8,-,0.03,Rain,Rain,210,2012-04-22 04:08:00
11:53 PM,44.1,39.9,85,29.94,10.0,ESE,4.6,-,0.06,,Scattered Clouds,120,2012-04-22 04:53:00